Date,TemperatureHighF,TemperatureAvgF,TemperatureLowF,DewpointHighF,DewpointAvgF,DewpointLowF,HumidityHigh,HumidityAvg,HumidityLow,PressureMaxIn,PressureMinIn,WindSpeedMaxMPH,WindSpeedAvgMPH,GustSpeedMaxMPH,PrecipitationSumIn
2013-2-1,72.0,64.4,55.2,52.6,45.9,36.8,53,41,34,30.15,30.03,9,6,11,0.00
2013-2-2,72.7,66.2,58.5,50.3,46.1,33.7,52,39,28,30.12,29.97,7,3,8,0.00
2013-2-3,72.5,65.5,59.4,56.5,47.9,40.6,85,46,26,30.03,29.94,10,3,11,0.00
2013-2-4,72.3,64.2,54.7,50.7,45.3,37.5,68,41,24,30.03,29.88,6,2,7,0.00
2013-2-5,77.0,68.6,59.4,60.3,56.5,48.6,83,59,42,29.94,29.85,5,2,8,0.00
2013-2-6,78.4,71.3,64.2,67.8,62.0,57.8,92,68,48,29.97,29.88,9,3,9,0.00
2013-2-7,80.8,74.7,70.9,64.4,62.1,59.4,69,58,44,29.94,29.83,7,3,10,0.00
2013-2-8,81.5,74.7,69.6,71.6,67.3,62.1,98,75,44,29.88,29.77,11,3,13,0.00
2013-2-9,78.1,72.0,67.1,70.0,62.4,56.0,97,67,48,30.03,29.88,9,4,11,0.00
2013-2-10,74.3,72.1,69.8,65.5,59.2,53.0,80,57,43,30.12,30.00,11,7,13,0.00
2013-2-11,79.5,73.9,70.2,63.3,61.3,58.1,70,58,45,30.09,29.97,8,4,9,0.00
2013-2-12,82.2,75.3,70.7,70.3,66.7,63.0,89,70,51,29.97,29.83,9,3,13,0.00
2013-2-13,82.0,76.1,71.8,74.2,71.5,69.3,95,83,62,29.88,29.77,10,3,13,0.00
2013-2-14,79.0,72.3,64.4,75.4,70.1,64.0,98,91,74,29.88,29.71,17,3,17,5.73
2013-2-15,72.3,68.0,64.8,68.5,66.7,64.4,98,95,80,29.88,29.80,7,3,8,2.06
2013-2-16,73.9,66.6,57.2,66.1,55.9,42.9,98,67,25,29.94,29.74,16,8,20,0.00
2013-2-17,59.0,53.3,46.8,43.8,28.9,19.0,52,30,14,30.15,29.94,13,7,17,0.00
2013-2-18,68.7,60.6,49.3,52.9,43.1,31.9,53,42,32,30.18,30.06,9,6,13,0.00
2013-2-19,76.8,71.5,67.3,67.5,58.1,50.1,91,55,44,30.06,29.94,9,4,10,0.00
2013-2-20,76.1,71.0,66.4,67.3,64.2,53.7,98,76,41,29.97,29.88,8,2,8,0.00
2013-2-21,80.8,74.8,70.9,68.4,64.7,59.2,87,66,46,29.94,29.85,7,4,9,0.00
2013-2-22,82.8,76.3,72.1,73.0,70.6,67.0,96,80,56,29.97,29.88,10,5,12,0.00
2013-2-23,83.1,77.1,73.6,74.1,71.7,69.9,96,80,60,29.91,29.80,8,4,13,0.00
2013-2-24,84.4,77.0,71.8,75.4,72.6,67.0,98,84,53,29.85,29.77,6,1,10,0.00
2013-2-25,84.0,76.9,71.4,76.4,72.6,68.9,96,84,66,29.80,29.68,9,2,10,0.00
2013-2-26,83.5,78.5,75.2,74.6,72.6,67.2,92,79,56,29.77,29.68,9,3,13,0.00
2013-2-27,76.8,72.1,67.5,74.3,67.8,58.2,98,84,45,29.83,29.71,7,3,9,0.49
2013-2-28,70.2,66.4,61.9,66.9,53.0,39.4,97,57,24,29.88,29.77,10,4,12,0.00